Flag for Mauritania Weather past 2 weeks in Nouakchott, Mauritania

Now
81 °F

Passing clouds.


Feels Like: 87 °F
Forecast: N/A
Wind: 6 mph from North

Location: Nouakchott Airport

Current Time: Aug 31, 2015 at 10:08:22 PM

Latest Report: Aug 31, 2015 at 9:30 PM


Visibility: 5 mi

Pressure: 29.98 "Hg

Humidity: 89%

Dew point: 77 °F

Location of NouakchottLocation

Historic Weather in Nouakchott — Graph

°F

Nouakchott temperature yesterday

Maximum temperature yesterday: 95 °F (at 12:30 PM)
Minimum temperature yesterday: 79 °F (at 6:00 AM)
Average temperature yesterday: 86 °F

Past Weeks' High & Low Weather Summary

 TemperatureHumidityPressure
High100 °F (Aug 29, 1:00 PM)100% (Aug 22, 4:00 PM)30.04 "Hg (Aug 22, 4:00 PM)
Low70 °F (Aug 22, 3:30 PM)21% (Aug 29, 2:00 PM)29.74 "Hg (Aug 17, 2:30 PM)
Average85 °F71%29.85 "Hg
* Reported Aug 16 9:00 PM — Aug 31 9:00 PM, Nouakchott, Weather by CustomWeather, © 2015

Note: Actual official high and low records may vary slightly from our data, if they occured in-between our weather recording intervals... More about our weather records

Advertising

Nouakchott weather history for previous 24 hours

 ConditionsComfort  
Time TempWeatherWind HumidityBarometerVisibility
9:00 PM
Mon, Aug 31
81 °FPassing clouds.5 mph89%29.98 "Hg5 mi
8:30 PM81 °FPassing clouds.6 mph89%29.95 "HgN/A
8:00 PM81 °FPartly cloudy.7 mph89%29.95 "HgN/A
7:30 PM82 °FPartly cloudy.7 mph84%29.95 "HgN/A
7:00 PM82 °FBroken clouds.7 mph84%29.95 "HgN/A
6:30 PM82 °FPartly sunny.8 mph84%29.92 "HgN/A
6:00 PM84 °FPartly sunny.10 mph79%29.92 "HgN/A
5:30 PM84 °FPartly sunny.8 mph79%29.92 "HgN/A
5:00 PM84 °FPartly sunny.9 mph74%29.92 "HgN/A
4:30 PM84 °FBroken clouds.8 mph74%29.92 "HgN/A
4:00 PM84 °FBroken clouds.9 mph74%29.95 "HgN/A
3:30 PM84 °FScattered clouds.12 mph74%29.95 "HgN/A
3:00 PM86 °FScattered clouds.14 mph75%29.95 "HgN/A
2:30 PM86 °FScattered clouds.15 mph75%29.95 "HgN/A
2:00 PM86 °FScattered clouds.14 mph70%29.95 "HgN/A
1:30 PM82 °FScattered clouds.13 mph74%29.95 "HgN/A
1:00 PM77 °FScattered clouds.2 mph83%29.98 "Hg5 mi
12:30 PM73 °FScattered clouds.5 mph94%29.98 "Hg5 mi
12:00 PM72 °FScattered clouds.No wind94%29.98 "Hg4 mi
11:30 AM70 °FLight rain. Scattered clouds.5 mph94%29.98 "Hg4 mi
9:30 AM73 °FRain. Partly sunny.23 mph89%30.04 "Hg3 mi
9:00 AM81 °FPartly sunny.7 mph79%30.01 "Hg4 mi
8:30 AM79 °FScattered clouds.6 mph84%29.98 "Hg4 mi
8:00 AM77 °FScattered clouds.3 mph83%29.98 "Hg4 mi
7:30 AM77 °FScattered clouds.6 mph83%29.98 "Hg4 mi
7:00 AM75 °FScattered clouds.3 mph89%29.95 "Hg4 mi
6:30 AM75 °FPassing clouds.No wind89%29.95 "Hg4 mi
6:00 AM77 °FPassing clouds.No wind83%29.92 "Hg4 mi
5:30 AM75 °FPassing clouds.No wind89%29.92 "Hg4 mi
5:00 AM77 °FPassing clouds.6 mph83%29.92 "Hg4 mi
4:30 AM77 °FPassing clouds.7 mph83%29.92 "Hg4 mi
4:00 AM77 °FPassing clouds.8 mph83%29.92 "Hg4 mi
3:30 AM77 °FPassing clouds.6 mph83%29.92 "Hg4 mi
3:00 AM77 °FPassing clouds.8 mph89%29.92 "Hg4 mi
2:30 AM77 °FThunderstorms. Passing clouds.8 mph89%29.95 "Hg3 mi
2:00 AM75 °FThunderstorms. Passing clouds.3 mph94%29.95 "Hg3 mi
1:30 AM75 °FThunderstorms. Passing clouds.7 mph94%29.98 "Hg3 mi
1:03 AM73 °FStrong thunderstorms. Passing clouds.15 mph94%29.98 "Hg2 mi
12:30 AM84 °FThunderstorms. Passing clouds.5 mph79%29.98 "Hg5 mi
12:00 AM84 °FPassing clouds.6 mph79%29.98 "Hg5 mi
11:30 PM
Sun, Aug 30
84 °FPassing clouds.7 mph79%29.98 "Hg5 mi
11:00 PM84 °FPassing clouds.6 mph79%29.98 "Hg5 mi
10:30 PM84 °FPassing clouds.8 mph79%29.98 "Hg5 mi
10:00 PM84 °FPassing clouds.12 mph79%29.95 "Hg5 mi
Weather by CustomWeather, © 2015

See weather overviewHow to use our weather pages